This is the latest recevied weather packets stored in our database for station/object KB2M. If no packets are shown the sender has not sent any weather packets the latest 10 day(s).
| Time | Temp. | Humidity | Pressure | Rain* | Wind** | Luminosity | Snow |
|---|---|---|---|---|---|---|---|
| 1777971769 | 17.78° C | 87% | 1016.9 hPa | 0 mm | - | - | - |
| 1777971168 | 17.78° C | 85% | 1016.9 hPa | 0 mm | - | - | - |
| 1777970568 | 17.78° C | 85% | 1016.9 hPa | 0 mm | - | - | - |
| 1777969967 | 17.78° C | 85% | 1016.9 hPa | 0 mm | - | - | - |
| 1777969367 | 18.33° C | 84% | 1016.9 hPa | 0 mm | - | - | - |
| 1777968766 | 18.33° C | 83% | 1016.5 hPa | 0 mm | - | - | - |
| 1777968165 | 18.33° C | 80% | 1016.9 hPa | 0 mm | - | - | - |
| 1777967565 | 18.33° C | 80% | 1016.5 hPa | 0 mm | - | - | - |
| 1777966964 | 18.89° C | 80% | 1016.9 hPa | 0 mm | - | - | - |
| 1777966363 | 19.44° C | 77% | 1016.9 hPa | 0 mm | - | - | - |
| 1777965763 | 20° C | 76% | 1016.9 hPa | 0 mm | - | - | - |
| 1777965162 | 20.56° C | 73% | 1016.9 hPa | 0 mm | - | - | - |
| 1777964561 | 21.11° C | 67% | 1016.9 hPa | 0 mm | - | - | - |
| 1777963961 | 21.11° C | 67% | 1016.9 hPa | 0 mm | - | - | - |
| 1777963360 | 21.11° C | 66% | 1016.9 hPa | 0 mm | - | - | - |
| 1777962760 | 21.11° C | 64% | 1016.9 hPa | 0 mm | - | - | - |
| 1777962159 | 21.11° C | 65% | 1017.2 hPa | 0 mm | - | - | - |
| 1777961558 | 21.67° C | 64% | 1017.2 hPa | 0 mm | - | - | - |
| 1777960958 | 21.11° C | 65% | 1017.2 hPa | 0 mm | - | - | - |
| 1777960357 | 21.67° C | 65% | 1017.6 hPa | 0 mm | - | - | - |
| 1777959756 | 21.11° C | 64% | 1017.6 hPa | 0 mm | - | - | - |
| 1777959156 | 21.67° C | 63% | 1017.6 hPa | 0 mm | - | - | - |
| 1777958555 | 21.67° C | 63% | 1017.9 hPa | 0 mm | - | - | - |
| 1777957954 | 21.67° C | 64% | 1017.9 hPa | 0 mm | - | - | - |
| 1777957354 | 21.67° C | 64% | 1017.9 hPa | 0 mm | - | - | - |
* Rain latest hour (hover to see other rain measurements)
** Current wind speed in m/s (hover to see current wind gust speed)